owner,sensor,date,latitude,longitude,vertical_datum,wind_speed,wind_to_direction,wind_speed_of_gust,qcFlag 
DISL,ioos:station:DISL:MHPA:1,2015-09-01T00:00:00Z,30.6671,-87.9365,8.5,5.9,212.4,-9999.0,'1111122,1111122,1111122' 
DISL,ioos:station:DISL:MHPA:1,2015-09-01T00:30:00Z,30.6671,-87.9365,8.5,5.05,194.2,-9999.0,'1111122,1111122,1111122' 
DISL,ioos:station:DISL:MHPA:1,2015-09-01T01:00:00Z,30.6671,-87.9365,8.5,4.36,194.3,-9999.0,'1111122,1111122,1111122' 
DISL,ioos:station:DISL:MHPA:1,2015-09-01T01:30:00Z,30.6671,-87.9365,8.5,3.97,201.2,-9999.0,'1111122,1111122,1111122' 
DISL,ioos:station:DISL:MHPA:1,2015-09-01T02:00:00Z,30.6671,-87.9365,8.5,3.35,213.4,-9999.0,'1111122,1111122,1111122' 
DISL,ioos:station:DISL:MHPA:1,2015-09-01T02:30:00Z,30.6671,-87.9365,8.5,3.51,239.0,-9999.0,'1111122,1111122,1111122' 
DISL,ioos:station:DISL:MHPA:1,2015-09-01T03:00:00Z,30.6671,-87.9365,8.5,3.58,241.7,-9999.0,'1111122,1111122,1111122' 
DISL,ioos:station:DISL:MHPA:1,2015-09-01T03:30:00Z,30.6671,-87.9365,8.5,2.92,258.4,-9999.0,'1111122,1111122,1111122' 
DISL,ioos:station:DISL:MHPA:1,2015-09-01T04:00:00Z,30.6671,-87.9365,8.5,2.46,259.4,-9999.0,'1111122,1111122,1111122' 
DISL,ioos:station:DISL:MHPA:1,2015-09-01T04:30:00Z,30.6671,-87.9365,8.5,1.34,248.9,-9999.0,'1111122,1111122,1111122' 
DISL,ioos:station:DISL:MHPA:1,2015-09-01T05:00:00Z,30.6671,-87.9365,8.5,2.05,223.5,-9999.0,'1111122,1111122,1111122' 
DISL,ioos:station:DISL:MHPA:1,2015-09-01T05:30:00Z,30.6671,-87.9365,8.5,2.21,249.1,-9999.0,'1111122,1111122,1111122' 
DISL,ioos:station:DISL:MHPA:1,2015-09-01T06:00:00Z,30.6671,-87.9365,8.5,0.87,342.7,-9999.0,'1111122,1111122,1111122' 
DISL,ioos:station:DISL:MHPA:1,2015-09-01T06:30:00Z,30.6671,-87.9365,8.5,1.33,337.4,-9999.0,'1111122,1111122,1111122' 
DISL,ioos:station:DISL:MHPA:1,2015-09-01T07:00:00Z,30.6671,-87.9365,8.5,0.8,6.165,-9999.0,'1111122,1111122,1111122' 
DISL,ioos:station:DISL:MHPA:1,2015-09-01T07:30:00Z,30.6671,-87.9365,8.5,0.82,93.6,-9999.0,'1111122,1111122,1111122' 
DISL,ioos:station:DISL:MHPA:1,2015-09-01T08:00:00Z,30.6671,-87.9365,8.5,1.29,56.91,-9999.0,'1111122,1111122,1111122' 
DISL,ioos:station:DISL:MHPA:1,2015-09-01T08:30:00Z,30.6671,-87.9365,8.5,1.09,93.0,-9999.0,'1111122,1111122,1111122' 
DISL,ioos:station:DISL:MHPA:1,2015-09-01T09:00:00Z,30.6671,-87.9365,8.5,0.54,24.03,-9999.0,'1111122,1111122,1111122' 
DISL,ioos:station:DISL:MHPA:1,2015-09-01T09:30:00Z,30.6671,-87.9365,8.5,0.74,29.18,-9999.0,'1111122,1111122,1111122' 
DISL,ioos:station:DISL:MHPA:1,2015-09-01T10:00:00Z,30.6671,-87.9365,8.5,0.87,355.1,-9999.0,'1111122,1111122,1111122' 
DISL,ioos:station:DISL:MHPA:1,2015-09-01T10:30:00Z,30.6671,-87.9365,8.5,0.73,32.82,-9999.0,'1111122,1111122,1111122' 
DISL,ioos:station:DISL:MHPA:1,2015-09-01T11:00:00Z,30.6671,-87.9365,8.5,0.62,18.99,-9999.0,'1111122,1111122,1111122' 
DISL,ioos:station:DISL:MHPA:1,2015-09-01T11:30:00Z,30.6671,-87.9365,8.5,0.99,26.91,-9999.0,'1111122,1111122,1111122' 
DISL,ioos:station:DISL:MHPA:1,2015-09-01T12:00:00Z,30.6671,-87.9365,8.5,1.23,5.685,-9999.0,'1111122,1111122,1111122' 
DISL,ioos:station:DISL:MHPA:1,2015-09-01T12:30:00Z,30.6671,-87.9365,8.5,0.97,16.34,-9999.0,'1111122,1111122,1111122' 
DISL,ioos:station:DISL:MHPA:1,2015-09-01T13:00:00Z,30.6671,-87.9365,8.5,1.54,20.94,-9999.0,'1111122,1111122,1111122' 
DISL,ioos:station:DISL:MHPA:1,2015-09-01T13:30:00Z,30.6671,-87.9365,8.5,1.56,21.1,-9999.0,'1111122,1111122,1111122' 
DISL,ioos:station:DISL:MHPA:1,2015-09-01T14:00:00Z,30.6671,-87.9365,8.5,1.93,20.68,-9999.0,'1111122,1111122,1111122' 
DISL,ioos:station:DISL:MHPA:1,2015-09-01T14:30:00Z,30.6671,-87.9365,8.5,2.59,322.5,-9999.0,'1111122,1111122,1111122' 
DISL,ioos:station:DISL:MHPA:1,2015-09-01T15:00:00Z,30.6671,-87.9365,8.5,2.52,323.0,-9999.0,'1111122,1111122,1111122' 
DISL,ioos:station:DISL:MHPA:1,2015-09-01T15:30:00Z,30.6671,-87.9365,8.5,2.57,335.6,-9999.0,'1111122,1111122,1111122' 
DISL,ioos:station:DISL:MHPA:1,2015-09-01T16:00:00Z,30.6671,-87.9365,8.5,1.39,299.1,-9999.0,'1111122,1111122,1111122' 
DISL,ioos:station:DISL:MHPA:1,2015-09-01T16:30:00Z,30.6671,-87.9365,8.5,1.19,262.7,-9999.0,'1111122,1111122,1111122' 
DISL,ioos:station:DISL:MHPA:1,2015-09-01T17:00:00Z,30.6671,-87.9365,8.5,2.15,216.4,-9999.0,'1111122,1111122,1111122' 
DISL,ioos:station:DISL:MHPA:1,2015-09-01T17:30:00Z,30.6671,-87.9365,8.5,3.12,250.2,-9999.0,'1111122,1111122,1111122' 
DISL,ioos:station:DISL:MHPA:1,2015-09-01T18:00:00Z,30.6671,-87.9365,8.5,3.15,252.3,-9999.0,'1111122,1111122,1111122' 
DISL,ioos:station:DISL:MHPA:1,2015-09-01T18:30:00Z,30.6671,-87.9365,8.5,3.84,224.1,-9999.0,'1111122,1111122,1111122' 
DISL,ioos:station:DISL:MHPA:1,2015-09-01T19:00:00Z,30.6671,-87.9365,8.5,3.51,215.4,-9999.0,'1111122,1111122,1111122' 
DISL,ioos:station:DISL:MHPA:1,2015-09-01T19:30:00Z,30.6671,-87.9365,8.5,3.17,223.0,-9999.0,'1111122,1111122,1111122' 
DISL,ioos:station:DISL:MHPA:1,2015-09-01T20:00:00Z,30.6671,-87.9365,8.5,2.71,221.5,-9999.0,'1111122,1111122,1111122' 
DISL,ioos:station:DISL:MHPA:1,2015-09-01T20:30:00Z,30.6671,-87.9365,8.5,2.67,226.9,-9999.0,'1111122,1111122,1111122' 
DISL,ioos:station:DISL:MHPA:1,2015-09-01T21:00:00Z,30.6671,-87.9365,8.5,3.95,197.2,-9999.0,'1111122,1111122,1111122' 
DISL,ioos:station:DISL:MHPA:1,2015-09-01T21:30:00Z,30.6671,-87.9365,8.5,3.59,200.3,-9999.0,'1111122,1111122,1111122' 
DISL,ioos:station:DISL:MHPA:1,2015-09-01T22:00:00Z,30.6671,-87.9365,8.5,5.24,190.6,-9999.0,'1111122,1111122,1111122' 
DISL,ioos:station:DISL:MHPA:1,2015-09-01T22:30:00Z,30.6671,-87.9365,8.5,6.58,181.4,-9999.0,'1111122,1111122,1111122' 
DISL,ioos:station:DISL:MHPA:1,2015-09-01T23:00:00Z,30.6671,-87.9365,8.5,6.33,191.5,-9999.0,'1111122,1111122,1111122' 
DISL,ioos:station:DISL:MHPA:1,2015-09-01T23:30:00Z,30.6671,-87.9365,8.5,5.41,206.0,-9999.0,'1111122,1111122,1111122' 
DISL,ioos:station:DISL:MHPA:1,2015-09-02T00:00:00Z,30.6671,-87.9365,8.5,4.72,215.8,-9999.0,'1111122,1111122,1111122' 
DISL,ioos:station:DISL:MHPA:1,2015-09-02T00:30:00Z,30.6671,-87.9365,8.5,4.61,230.0,-9999.0,'1111122,1111122,1111122' 
DISL,ioos:station:DISL:MHPA:1,2015-09-02T01:00:00Z,30.6671,-87.9365,8.5,4.32,226.4,-9999.0,'1111122,1111122,1111122' 
DISL,ioos:station:DISL:MHPA:1,2015-09-02T01:30:00Z,30.6671,-87.9365,8.5,3.99,233.6,-9999.0,'1111122,1111122,1111122' 
DISL,ioos:station:DISL:MHPA:1,2015-09-02T02:00:00Z,30.6671,-87.9365,8.5,3.99,251.6,-9999.0,'1111122,1111122,1111122' 
DISL,ioos:station:DISL:MHPA:1,2015-09-02T02:30:00Z,30.6671,-87.9365,8.5,3.23,261.1,-9999.0,'1111122,1111122,1111122' 
DISL,ioos:station:DISL:MHPA:1,2015-09-02T03:00:00Z,30.6671,-87.9365,8.5,3.15,260.1,-9999.0,'1111122,1111122,1111122' 
DISL,ioos:station:DISL:MHPA:1,2015-09-02T03:30:00Z,30.6671,-87.9365,8.5,3.51,255.7,-9999.0,'1111122,1111122,1111122' 
DISL,ioos:station:DISL:MHPA:1,2015-09-02T04:00:00Z,30.6671,-87.9365,8.5,3.45,257.2,-9999.0,'1111122,1111122,1111122' 
DISL,ioos:station:DISL:MHPA:1,2015-09-02T04:30:00Z,30.6671,-87.9365,8.5,2.29,267.9,-9999.0,'1111122,1111122,1111122' 
DISL,ioos:station:DISL:MHPA:1,2015-09-02T05:00:00Z,30.6671,-87.9365,8.5,1.4,304.6,-9999.0,'1111122,1111122,1111122' 
DISL,ioos:station:DISL:MHPA:1,2015-09-02T05:30:00Z,30.6671,-87.9365,8.5,0.78,319.6,-9999.0,'1111122,1111122,1111122' 
DISL,ioos:station:DISL:MHPA:1,2015-09-02T06:00:00Z,30.6671,-87.9365,8.5,1.01,38.17,-9999.0,'1111122,1111122,1111122' 
DISL,ioos:station:DISL:MHPA:1,2015-09-02T06:30:00Z,30.6671,-87.9365,8.5,1.26,338.8,-9999.0,'1111122,1111122,1111122' 
DISL,ioos:station:DISL:MHPA:1,2015-09-02T07:00:00Z,30.6671,-87.9365,8.5,0.52,1.845,-9999.0,'1111122,1111122,1111122' 
DISL,ioos:station:DISL:MHPA:1,2015-09-02T07:30:00Z,30.6671,-87.9365,8.5,0.72,358.5,-9999.0,'1111122,1111122,1111122' 
DISL,ioos:station:DISL:MHPA:1,2015-09-02T08:00:00Z,30.6671,-87.9365,8.5,0.94,348.1,-9999.0,'1111122,1111122,1111122' 
DISL,ioos:station:DISL:MHPA:1,2015-09-02T08:30:00Z,30.6671,-87.9365,8.5,0.85,319.6,-9999.0,'1111122,1111122,1111122' 
DISL,ioos:station:DISL:MHPA:1,2015-09-02T09:00:00Z,30.6671,-87.9365,8.5,0.73,6.95,-9999.0,'1111122,1111122,1111122' 
DISL,ioos:station:DISL:MHPA:1,2015-09-02T09:30:00Z,30.6671,-87.9365,8.5,0.96,20.36,-9999.0,'1111122,1111122,1111122' 
DISL,ioos:station:DISL:MHPA:1,2015-09-02T10:00:00Z,30.6671,-87.9365,8.5,1.04,31.39,-9999.0,'1111122,1111122,1111122' 
DISL,ioos:station:DISL:MHPA:1,2015-09-02T10:30:00Z,30.6671,-87.9365,8.5,0.42,48.61,-9999.0,'1111122,1111122,1111122' 
DISL,ioos:station:DISL:MHPA:1,2015-09-02T11:00:00Z,30.6671,-87.9365,8.5,0.38,7.942,-9999.0,'1111122,1111122,1111122' 
DISL,ioos:station:DISL:MHPA:1,2015-09-02T11:30:00Z,30.6671,-87.9365,8.5,0.1,26.81,-9999.0,'1111122,1111122,1111122' 
DISL,ioos:station:DISL:MHPA:1,2015-09-02T12:00:00Z,30.6671,-87.9365,8.5,0.32,42.84,-9999.0,'1111122,1111122,1111122' 
DISL,ioos:station:DISL:MHPA:1,2015-09-02T12:30:00Z,30.6671,-87.9365,8.5,0.33,49.47,-9999.0,'1111122,1111122,1111122' 
DISL,ioos:station:DISL:MHPA:1,2015-09-02T13:00:00Z,30.6671,-87.9365,8.5,0.54,328.7,-9999.0,'1111122,1111122,1111122' 
DISL,ioos:station:DISL:MHPA:1,2015-09-02T13:30:00Z,30.6671,-87.9365,8.5,0.5,16.77,-9999.0,'1111122,1111122,1111122' 
DISL,ioos:station:DISL:MHPA:1,2015-09-02T14:00:00Z,30.6671,-87.9365,8.5,0.67,231.4,-9999.0,'1111122,1111122,1111122' 
DISL,ioos:station:DISL:MHPA:1,2015-09-02T14:30:00Z,30.6671,-87.9365,8.5,0.91,331.7,-9999.0,'1111122,1111122,1111122' 
DISL,ioos:station:DISL:MHPA:1,2015-09-02T15:00:00Z,30.6671,-87.9365,8.5,1.07,304.0,-9999.0,'1111122,1111122,1111122' 
DISL,ioos:station:DISL:MHPA:1,2015-09-02T15:30:00Z,30.6671,-87.9365,8.5,0.89,298.8,-9999.0,'1111122,1111122,1111122' 
DISL,ioos:station:DISL:MHPA:1,2015-09-02T16:00:00Z,30.6671,-87.9365,8.5,0.25,272.6,-9999.0,'1111122,1111122,1111122' 
DISL,ioos:station:DISL:MHPA:1,2015-09-02T16:30:00Z,30.6671,-87.9365,8.5,2.05,210.5,-9999.0,'1111122,1111122,1111122' 
DISL,ioos:station:DISL:MHPA:1,2015-09-02T17:00:00Z,30.6671,-87.9365,8.5,2.27,231.1,-9999.0,'1111122,1111122,1111122' 
DISL,ioos:station:DISL:MHPA:1,2015-09-02T17:30:00Z,30.6671,-87.9365,8.5,2.88,231.0,-9999.0,'1111122,1111122,1111122' 
DISL,ioos:station:DISL:MHPA:1,2015-09-02T18:00:00Z,30.6671,-87.9365,8.5,3.7,213.8,-9999.0,'1111122,1111122,1111122' 
DISL,ioos:station:DISL:MHPA:1,2015-09-02T18:30:00Z,30.6671,-87.9365,8.5,3.5,218.7,-9999.0,'1111122,1111122,1111122' 
DISL,ioos:station:DISL:MHPA:1,2015-09-02T19:00:00Z,30.6671,-87.9365,8.5,4.17,216.9,-9999.0,'1111122,1111122,1111122' 
DISL,ioos:station:DISL:MHPA:1,2015-09-02T19:30:00Z,30.6671,-87.9365,8.5,4.63,203.3,-9999.0,'1111122,1111122,1111122' 
DISL,ioos:station:DISL:MHPA:1,2015-09-02T20:00:00Z,30.6671,-87.9365,8.5,4.82,213.7,-9999.0,'1111122,1111122,1111122' 
DISL,ioos:station:DISL:MHPA:1,2015-09-02T20:30:00Z,30.6671,-87.9365,8.5,4.7,206.2,-9999.0,'1111122,1111122,1111122' 
DISL,ioos:station:DISL:MHPA:1,2015-09-02T21:00:00Z,30.6671,-87.9365,8.5,5.0,197.6,-9999.0,'1111122,1111122,1111122' 
DISL,ioos:station:DISL:MHPA:1,2015-09-02T21:30:00Z,30.6671,-87.9365,8.5,4.94,202.5,-9999.0,'1111122,1111122,1111122' 
DISL,ioos:station:DISL:MHPA:1,2015-09-02T22:00:00Z,30.6671,-87.9365,8.5,5.18,206.3,-9999.0,'1111122,1111122,1111122' 
DISL,ioos:station:DISL:MHPA:1,2015-09-02T22:30:00Z,30.6671,-87.9365,8.5,5.47,215.9,-9999.0,'1111122,1111122,1111122' 
DISL,ioos:station:DISL:MHPA:1,2015-09-02T23:00:00Z,30.6671,-87.9365,8.5,5.57,237.8,-9999.0,'1111122,1111122,1111122' 
DISL,ioos:station:DISL:MHPA:1,2015-09-02T23:30:00Z,30.6671,-87.9365,8.5,4.91,231.8,-9999.0,'1111122,1111122,1111122' 
DISL,ioos:station:DISL:MHPA:1,2015-09-03T00:00:00Z,30.6671,-87.9365,8.5,5.03,239.3,-9999.0,'1111122,1111122,1111122' 
DISL,ioos:station:DISL:MHPA:1,2015-09-03T00:30:00Z,30.6671,-87.9365,8.5,4.17,243.5,-9999.0,'1111122,1111122,1111122' 
DISL,ioos:station:DISL:MHPA:1,2015-09-03T01:00:00Z,30.6671,-87.9365,8.5,3.36,259.6,-9999.0,'1111122,1111122,1111122' 
DISL,ioos:station:DISL:MHPA:1,2015-09-03T01:30:00Z,30.6671,-87.9365,8.5,2.48,258.2,-9999.0,'1111122,1111122,1111122' 
DISL,ioos:station:DISL:MHPA:1,2015-09-03T02:00:00Z,30.6671,-87.9365,8.5,1.91,254.9,-9999.0,'1111122,1111122,1111122' 
DISL,ioos:station:DISL:MHPA:1,2015-09-03T02:30:00Z,30.6671,-87.9365,8.5,2.55,255.5,-9999.0,'1111122,1111122,1111122' 
DISL,ioos:station:DISL:MHPA:1,2015-09-03T03:00:00Z,30.6671,-87.9365,8.5,2.16,253.7,-9999.0,'1111122,1111122,1111122' 
DISL,ioos:station:DISL:MHPA:1,2015-09-03T03:30:00Z,30.6671,-87.9365,8.5,1.4,247.7,-9999.0,'1111122,1111122,1111122' 
DISL,ioos:station:DISL:MHPA:1,2015-09-03T04:00:00Z,30.6671,-87.9365,8.5,2.32,238.9,-9999.0,'1111122,1111122,1111122' 
DISL,ioos:station:DISL:MHPA:1,2015-09-03T04:30:00Z,30.6671,-87.9365,8.5,2.08,271.1,-9999.0,'1111122,1111122,1111122' 
DISL,ioos:station:DISL:MHPA:1,2015-09-03T05:00:00Z,30.6671,-87.9365,8.5,1.98,268.7,-9999.0,'1111122,1111122,1111122' 
DISL,ioos:station:DISL:MHPA:1,2015-09-03T05:30:00Z,30.6671,-87.9365,8.5,2.28,268.7,-9999.0,'1111122,1111122,1111122' 
DISL,ioos:station:DISL:MHPA:1,2015-09-03T06:00:00Z,30.6671,-87.9365,8.5,1.58,286.1,-9999.0,'1111122,1111122,1111122' 
DISL,ioos:station:DISL:MHPA:1,2015-09-03T06:30:00Z,30.6671,-87.9365,8.5,2.21,260.2,-9999.0,'1111122,1111122,1111122' 
DISL,ioos:station:DISL:MHPA:1,2015-09-03T07:00:00Z,30.6671,-87.9365,8.5,2.24,261.3,-9999.0,'1111122,1111122,1111122' 
DISL,ioos:station:DISL:MHPA:1,2015-09-03T07:30:00Z,30.6671,-87.9365,8.5,2.37,262.9,-9999.0,'1111122,1111122,1111122' 
DISL,ioos:station:DISL:MHPA:1,2015-09-03T08:00:00Z,30.6671,-87.9365,8.5,1.41,281.4,-9999.0,'1111122,1111122,1111122' 
DISL,ioos:station:DISL:MHPA:1,2015-09-03T08:30:00Z,30.6671,-87.9365,8.5,0.94,301.9,-9999.0,'1111122,1111122,1111122' 
DISL,ioos:station:DISL:MHPA:1,2015-09-03T09:00:00Z,30.6671,-87.9365,8.5,0.27,302.3,-9999.0,'1111122,1111122,1111122' 
DISL,ioos:station:DISL:MHPA:1,2015-09-03T09:30:00Z,30.6671,-87.9365,8.5,0.67,342.4,-9999.0,'1111122,1111122,1111122' 
DISL,ioos:station:DISL:MHPA:1,2015-09-03T10:00:00Z,30.6671,-87.9365,8.5,0.73,1.696,-9999.0,'1111122,1111122,1111122' 
DISL,ioos:station:DISL:MHPA:1,2015-09-03T10:30:00Z,30.6671,-87.9365,8.5,1.02,338.4,-9999.0,'1111122,1111122,1111122' 
DISL,ioos:station:DISL:MHPA:1,2015-09-03T11:00:00Z,30.6671,-87.9365,8.5,0.95,352.0,-9999.0,'1111122,1111122,1111122' 
DISL,ioos:station:DISL:MHPA:1,2015-09-03T11:30:00Z,30.6671,-87.9365,8.5,1.81,356.6,-9999.0,'1111122,1111122,1111122' 
DISL,ioos:station:DISL:MHPA:1,2015-09-03T12:00:00Z,30.6671,-87.9365,8.5,1.47,351.7,-9999.0,'1111122,1111122,1111122' 
DISL,ioos:station:DISL:MHPA:1,2015-09-03T12:30:00Z,30.6671,-87.9365,8.5,1.07,7.948,-9999.0,'1111122,1111122,1111122' 
DISL,ioos:station:DISL:MHPA:1,2015-09-03T13:00:00Z,30.6671,-87.9365,8.5,1.42,0.146,-9999.0,'1111122,1111122,1111122' 
DISL,ioos:station:DISL:MHPA:1,2015-09-03T13:30:00Z,30.6671,-87.9365,8.5,1.43,355.5,-9999.0,'1111122,1111122,1111122' 
DISL,ioos:station:DISL:MHPA:1,2015-09-03T14:00:00Z,30.6671,-87.9365,8.5,1.79,331.9,-9999.0,'1111122,1111122,1111122' 
DISL,ioos:station:DISL:MHPA:1,2015-09-03T14:30:00Z,30.6671,-87.9365,8.5,1.73,328.6,-9999.0,'1111122,1111122,1111122' 
DISL,ioos:station:DISL:MHPA:1,2015-09-03T15:00:00Z,30.6671,-87.9365,8.5,0.99,334.1,-9999.0,'1111122,1111122,1111122' 
DISL,ioos:station:DISL:MHPA:1,2015-09-03T15:30:00Z,30.6671,-87.9365,8.5,0.49,353.5,-9999.0,'1111122,1111122,1111122' 
DISL,ioos:station:DISL:MHPA:1,2015-09-03T16:00:00Z,30.6671,-87.9365,8.5,1.36,298.9,-9999.0,'1111122,1111122,1111122' 
DISL,ioos:station:DISL:MHPA:1,2015-09-03T16:30:00Z,30.6671,-87.9365,8.5,1.06,284.5,-9999.0,'1111122,1111122,1111122' 
DISL,ioos:station:DISL:MHPA:1,2015-09-03T17:00:00Z,30.6671,-87.9365,8.5,1.7,222.4,-9999.0,'1111122,1111122,1111122' 
DISL,ioos:station:DISL:MHPA:1,2015-09-03T17:30:00Z,30.6671,-87.9365,8.5,1.9,239.0,-9999.0,'1111122,1111122,1111122' 
DISL,ioos:station:DISL:MHPA:1,2015-09-03T18:00:00Z,30.6671,-87.9365,8.5,3.14,221.5,-9999.0,'1111122,1111122,1111122' 
DISL,ioos:station:DISL:MHPA:1,2015-09-03T18:30:00Z,30.6671,-87.9365,8.5,3.29,204.6,-9999.0,'1111122,1111122,1111122' 
DISL,ioos:station:DISL:MHPA:1,2015-09-03T19:00:00Z,30.6671,-87.9365,8.5,4.45,192.9,-9999.0,'1111122,1111122,1111122' 
DISL,ioos:station:DISL:MHPA:1,2015-09-03T19:30:00Z,30.6671,-87.9365,8.5,5.19,202.9,-9999.0,'1111122,1111122,1111122' 
DISL,ioos:station:DISL:MHPA:1,2015-09-03T20:00:00Z,30.6671,-87.9365,8.5,6.36,191.0,-9999.0,'1111122,1111122,1111122' 
DISL,ioos:station:DISL:MHPA:1,2015-09-03T20:30:00Z,30.6671,-87.9365,8.5,6.86,194.7,-9999.0,'1111122,1111122,1111122' 
DISL,ioos:station:DISL:MHPA:1,2015-09-03T21:00:00Z,30.6671,-87.9365,8.5,7.27,192.2,-9999.0,'1111122,1111122,1111122' 
DISL,ioos:station:DISL:MHPA:1,2015-09-03T21:30:00Z,30.6671,-87.9365,8.5,6.85,210.6,-9999.0,'1111122,1111122,1111122' 
DISL,ioos:station:DISL:MHPA:1,2015-09-03T22:00:00Z,30.6671,-87.9365,8.5,5.57,197.3,-9999.0,'1111122,1111122,1111122' 
DISL,ioos:station:DISL:MHPA:1,2015-09-03T22:30:00Z,30.6671,-87.9365,8.5,5.39,179.5,-9999.0,'1111122,1111122,1111122' 
DISL,ioos:station:DISL:MHPA:1,2015-09-03T23:00:00Z,30.6671,-87.9365,8.5,3.85,197.1,-9999.0,'1111122,1111122,1111122' 
DISL,ioos:station:DISL:MHPA:1,2015-09-03T23:30:00Z,30.6671,-87.9365,8.5,3.38,191.1,-9999.0,'1111122,1111122,1111122' 
DISL,ioos:station:DISL:MHPA:1,2015-09-04T00:00:00Z,30.6671,-87.9365,8.5,2.18,200.7,-9999.0,'1111122,1111122,1111122' 
DISL,ioos:station:DISL:MHPA:1,2015-09-04T00:30:00Z,30.6671,-87.9365,8.5,2.83,195.2,-9999.0,'1111122,1111122,1111122' 
DISL,ioos:station:DISL:MHPA:1,2015-09-04T01:00:00Z,30.6671,-87.9365,8.5,2.48,197.5,-9999.0,'1111122,1111122,1111122' 
DISL,ioos:station:DISL:MHPA:1,2015-09-04T01:30:00Z,30.6671,-87.9365,8.5,2.71,208.6,-9999.0,'1111122,1111122,1111122' 
DISL,ioos:station:DISL:MHPA:1,2015-09-04T02:00:00Z,30.6671,-87.9365,8.5,4.1,213.9,-9999.0,'1111122,1111122,1111122' 
DISL,ioos:station:DISL:MHPA:1,2015-09-04T02:30:00Z,30.6671,-87.9365,8.5,4.54,212.0,-9999.0,'1111122,1111122,1111122' 
DISL,ioos:station:DISL:MHPA:1,2015-09-04T03:00:00Z,30.6671,-87.9365,8.5,4.55,205.9,-9999.0,'1111122,1111122,1111122' 
DISL,ioos:station:DISL:MHPA:1,2015-09-04T03:30:00Z,30.6671,-87.9365,8.5,4.78,211.4,-9999.0,'1111122,1111122,1111122' 
DISL,ioos:station:DISL:MHPA:1,2015-09-04T04:00:00Z,30.6671,-87.9365,8.5,3.84,225.3,-9999.0,'1111122,1111122,1111122' 
DISL,ioos:station:DISL:MHPA:1,2015-09-04T04:30:00Z,30.6671,-87.9365,8.5,3.51,234.5,-9999.0,'1111122,1111122,1111122' 
DISL,ioos:station:DISL:MHPA:1,2015-09-04T05:00:00Z,30.6671,-87.9365,8.5,3.03,242.1,-9999.0,'1111122,1111122,1111122' 
DISL,ioos:station:DISL:MHPA:1,2015-09-04T05:30:00Z,30.6671,-87.9365,8.5,1.51,286.0,-9999.0,'1111122,1111122,1111122' 
DISL,ioos:station:DISL:MHPA:1,2015-09-04T06:00:00Z,30.6671,-87.9365,8.5,2.62,239.7,-9999.0,'1111122,1111122,1111122' 
DISL,ioos:station:DISL:MHPA:1,2015-09-04T06:30:00Z,30.6671,-87.9365,8.5,2.57,234.1,-9999.0,'1111122,1111122,1111122' 
DISL,ioos:station:DISL:MHPA:1,2015-09-04T07:00:00Z,30.6671,-87.9365,8.5,2.25,256.2,-9999.0,'1111122,1111122,1111122' 
DISL,ioos:station:DISL:MHPA:1,2015-09-04T07:30:00Z,30.6671,-87.9365,8.5,1.93,263.7,-9999.0,'1111122,1111122,1111122' 
DISL,ioos:station:DISL:MHPA:1,2015-09-04T08:00:00Z,30.6671,-87.9365,8.5,1.48,274.1,-9999.0,'1111122,1111122,1111122' 
DISL,ioos:station:DISL:MHPA:1,2015-09-04T08:30:00Z,30.6671,-87.9365,8.5,0.97,352.9,-9999.0,'1111122,1111122,1111122' 
DISL,ioos:station:DISL:MHPA:1,2015-09-04T09:00:00Z,30.6671,-87.9365,8.5,1.4,359.0,-9999.0,'1111122,1111122,1111122' 
DISL,ioos:station:DISL:MHPA:1,2015-09-04T09:30:00Z,30.6671,-87.9365,8.5,1.13,12.86,-9999.0,'1111122,1111122,1111122' 
DISL,ioos:station:DISL:MHPA:1,2015-09-04T10:00:00Z,30.6671,-87.9365,8.5,1.22,13.98,-9999.0,'1111122,1111122,1111122' 
DISL,ioos:station:DISL:MHPA:1,2015-09-04T10:30:00Z,30.6671,-87.9365,8.5,0.72,24.68,-9999.0,'1111122,1111122,1111122' 
DISL,ioos:station:DISL:MHPA:1,2015-09-04T11:00:00Z,30.6671,-87.9365,8.5,1.17,15.41,-9999.0,'1111122,1111122,1111122' 
DISL,ioos:station:DISL:MHPA:1,2015-09-04T11:30:00Z,30.6671,-87.9365,8.5,1.25,32.65,-9999.0,'1111122,1111122,1111122' 
DISL,ioos:station:DISL:MHPA:1,2015-09-04T12:00:00Z,30.6671,-87.9365,8.5,0.79,35.22,-9999.0,'1111122,1111122,1111122' 
DISL,ioos:station:DISL:MHPA:1,2015-09-04T12:30:00Z,30.6671,-87.9365,8.5,0.88,19.56,-9999.0,'1111122,1111122,1111122' 
DISL,ioos:station:DISL:MHPA:1,2015-09-04T13:00:00Z,30.6671,-87.9365,8.5,2.02,0.933,-9999.0,'1111122,1111122,1111122' 
DISL,ioos:station:DISL:MHPA:1,2015-09-04T13:30:00Z,30.6671,-87.9365,8.5,1.71,17.55,-9999.0,'1111122,1111122,1111122' 
DISL,ioos:station:DISL:MHPA:1,2015-09-04T14:00:00Z,30.6671,-87.9365,8.5,1.3,338.2,-9999.0,'1111122,1111122,1111122' 
DISL,ioos:station:DISL:MHPA:1,2015-09-04T14:30:00Z,30.6671,-87.9365,8.5,1.33,329.6,-9999.0,'1111122,1111122,1111122' 
DISL,ioos:station:DISL:MHPA:1,2015-09-04T15:00:00Z,30.6671,-87.9365,8.5,1.04,303.5,-9999.0,'1111122,1111122,1111122' 
DISL,ioos:station:DISL:MHPA:1,2015-09-04T15:30:00Z,30.6671,-87.9365,8.5,1.43,299.6,-9999.0,'1111122,1111122,1111122' 
DISL,ioos:station:DISL:MHPA:1,2015-09-04T16:00:00Z,30.6671,-87.9365,8.5,0.65,100.1,-9999.0,'1111122,1111122,1111122' 
DISL,ioos:station:DISL:MHPA:1,2015-09-04T16:30:00Z,30.6671,-87.9365,8.5,0.55,200.6,-9999.0,'1111122,1111122,1111122' 
DISL,ioos:station:DISL:MHPA:1,2015-09-04T17:00:00Z,30.6671,-87.9365,8.5,1.05,227.2,-9999.0,'1111122,1111122,1111122' 
DISL,ioos:station:DISL:MHPA:1,2015-09-04T17:30:00Z,30.6671,-87.9365,8.5,0.86,221.7,-9999.0,'1111122,1111122,1111122' 
DISL,ioos:station:DISL:MHPA:1,2015-09-04T18:00:00Z,30.6671,-87.9365,8.5,1.76,208.0,-9999.0,'1111122,1111122,1111122' 
DISL,ioos:station:DISL:MHPA:1,2015-09-04T18:30:00Z,30.6671,-87.9365,8.5,2.77,219.2,-9999.0,'1111122,1111122,1111122' 
DISL,ioos:station:DISL:MHPA:1,2015-09-04T19:00:00Z,30.6671,-87.9365,8.5,3.65,195.3,-9999.0,'1111122,1111122,1111122' 
DISL,ioos:station:DISL:MHPA:1,2015-09-04T19:30:00Z,30.6671,-87.9365,8.5,3.79,195.8,-9999.0,'1111122,1111122,1111122' 
DISL,ioos:station:DISL:MHPA:1,2015-09-04T20:00:00Z,30.6671,-87.9365,8.5,4.45,200.3,-9999.0,'1111122,1111122,1111122' 
DISL,ioos:station:DISL:MHPA:1,2015-09-04T20:30:00Z,30.6671,-87.9365,8.5,4.18,196.8,-9999.0,'1111122,1111122,1111122' 
DISL,ioos:station:DISL:MHPA:1,2015-09-04T21:00:00Z,30.6671,-87.9365,8.5,5.27,192.0,-9999.0,'1111122,1111122,1111122' 
DISL,ioos:station:DISL:MHPA:1,2015-09-04T21:30:00Z,30.6671,-87.9365,8.5,5.56,186.9,-9999.0,'1111122,1111122,1111122' 
DISL,ioos:station:DISL:MHPA:1,2015-09-04T22:00:00Z,30.6671,-87.9365,8.5,6.09,186.1,-9999.0,'1111122,1111122,1111122' 
DISL,ioos:station:DISL:MHPA:1,2015-09-04T22:30:00Z,30.6671,-87.9365,8.5,5.31,192.7,-9999.0,'1111122,1111122,1111122' 
DISL,ioos:station:DISL:MHPA:1,2015-09-04T23:00:00Z,30.6671,-87.9365,8.5,5.85,189.3,-9999.0,'1111122,1111122,1111122' 
DISL,ioos:station:DISL:MHPA:1,2015-09-04T23:30:00Z,30.6671,-87.9365,8.5,6.66,211.6,-9999.0,'1111122,1111122,1111122' 
DISL,ioos:station:DISL:MHPA:1,2015-09-05T00:00:00Z,30.6671,-87.9365,8.5,5.64,241.6,-9999.0,'1111122,1111122,1111122' 
DISL,ioos:station:DISL:MHPA:1,2015-09-05T00:30:00Z,30.6671,-87.9365,8.5,5.13,210.5,-9999.0,'1111122,1111122,1111122' 
DISL,ioos:station:DISL:MHPA:1,2015-09-05T01:00:00Z,30.6671,-87.9365,8.5,5.85,227.9,-9999.0,'1111122,1111122,1111122' 
DISL,ioos:station:DISL:MHPA:1,2015-09-05T01:30:00Z,30.6671,-87.9365,8.5,3.33,229.5,-9999.0,'1111122,1111122,1111122' 
DISL,ioos:station:DISL:MHPA:1,2015-09-05T02:00:00Z,30.6671,-87.9365,8.5,2.87,252.7,-9999.0,'1111122,1111122,1111122' 
DISL,ioos:station:DISL:MHPA:1,2015-09-05T02:30:00Z,30.6671,-87.9365,8.5,3.26,247.5,-9999.0,'1111122,1111122,1111122' 
DISL,ioos:station:DISL:MHPA:1,2015-09-05T03:00:00Z,30.6671,-87.9365,8.5,3.21,245.2,-9999.0,'1111122,1111122,1111122' 
DISL,ioos:station:DISL:MHPA:1,2015-09-05T03:30:00Z,30.6671,-87.9365,8.5,3.23,254.6,-9999.0,'1111122,1111122,1111122' 
DISL,ioos:station:DISL:MHPA:1,2015-09-05T04:00:00Z,30.6671,-87.9365,8.5,2.95,256.5,-9999.0,'1111122,1111122,1111122' 
DISL,ioos:station:DISL:MHPA:1,2015-09-05T04:30:00Z,30.6671,-87.9365,8.5,2.86,247.7,-9999.0,'1111122,1111122,1111122' 